Погода в Манаусе

Бразилия     3°07′40″S   60°01′19″W
темп.,
°C
ветер,
м/с
пор.,
м/с
влажн.,
%
обл.,
%
осадки,
мм/ч
давл.,
гПа
погр.,
м
5 мая, ср
ср523:00+25св128691 0.0 1013109
02:00+24с019395 2.9 101226
05:00+23ссв239317 2.8 101371
08:00+25св248995 4.2 1016268
11:00+27ссв138061 5.3 1015407
14:00+28с337319 7.4 1011796
17:00+27с22835 1.3 1010122
20:00+25св01845 1.4 101247
6 мая, чт
чт623:00+24в229127 0.0 101388
02:00+24в129376 0.0 101180
05:00+23вюв11948 0.0 101285
08:00+25в238829 0.0 1014358
11:00+29св226639 0.0 1014783
14:00+30св125785 0.0 1009815
17:00+30с116528 0.0 100944
20:00+26в117979 0.9 101141
7 мая, пт
пт723:00+25юв1186100 0.1 101370
02:00+24в229227 0.1 101199
05:00+24вюв2391100 1.1 1012112
08:00+26вюв248056 1.1 1014302
11:00+30в236114 0.0 1013897
14:00+30всв236492 0.1 1009424
17:00+29вюв127691 0.3 100929
20:00+26юв2486100 1.8 101199
8 мая, сб
сб823:00+25юв248916 1.1 1013123
02:00+24юв2491100 1.4 1011145
05:00+23юв2393100 0.8 1012133
08:00+24вюв139298 2.8 1015217
11:00+30в24645 0.0 1013809
14:00+31в236340 0.9 10101175
17:00+27ююв2486100 2.5 1010167
20:00+25юв239076 4.3 101286
9 мая, вс
вс923:00+24юв2492100 1.4 1013141
02:00+24юв2393100 4.3 1012131
05:00+24юв2294100 1.1 1012119
08:00+24юв129269 2.1 1014156
11:00+27в228353 4.4 1014340
14:00+28вюв238139 8.9 1011369
17:00+28ю11815 2.5 1009104
20:00+25юв1188100 5.6 101227